Location: Praha
(50.0830°N, 14.4670°E)
Time: 02:51:00
(UTC+02:00)

ISS - Pass Details

Date: 18 May 2024
Orbit: 409 x 414 km, 51.6° (Epoch: 23 May)

Event Time Altitude Azimuth Distance (km) Brightness Sun altitude
Rises 00:15:41 0° 287° (WNW) 2,349 0.4 -19.7°
Reaches altitude 10° 00:17:48 10° 283° (WNW) 1,484 -0.7 -19.7°
Enters shadow 00:20:09 39° 261° (W) 631 -2.9 -19.8°
